Theta_e
322 315 323 316 304 299 293 296 303 303 305 312 313 315 315 316 314 309 328 328 325 335 344 344 343 345 347 348 347 345 344 343 342 341 340 338 337 336 336 337 336 335 334 334 333 334 333 332 331
315 314 316 309 299 293 295 299 300 304 307 318 317 318 317 314 323 324 324 329 327 339 344 343 341 344 348 347 346 345 344 342 341 339 338 336 336 336 335 335 334 334 334 334 334 333 333 331 330
312 313 310 305 298 295 295 299 302 304 309 313 314 320 319 318 324 326 331 328 331 339 343 342 341 345 347 346 346 344 344 341 339 337 336 336 335 335 334 334 334 333 333 333 333 332 329 328 328
307 308 305 299 296 298 300 301 303 305 310 313 316 315 321 327 326 330 330 329 334 338 342 340 342 345 346 346 345 345 343 340 337 336 335 336 335 335 334 333 333 332 332 331 330 328 327 328 329
305 303 297 293 296 301 302 304 304 305 308 312 317 313 318 324 328 329 329 331 333 336 340 342 342 344 346 345 345 344 342 339 337 336 336 335 335 333 333 332 332 332 331 329 327 327 327 328 330
300 300 292 292 296 300 302 306 306 305 306 308 312 314 319 323 326 329 331 331 334 335 339 341 336 340 342 343 343 342 341 339 338 337 336 334 334 333 333 333 332 330 329 327 327 327 328 329 330
297 294 295 294 296 298 302 305 304 306 305 308 317 313 319 320 326 331 331 333 333 336 338 340 342 339 335 338 338 339 339 338 337 337 336 335 335 333 334 334 332 330 330 328 328 329 329 330 330
299 296 291 297 295 296 304 304 306 306 306 316 321 314 316 320 327 330 331 331 331 334 336 337 338 341 341 340 332 333 335 336 335 334 332 329 330 329 331 329 333 332 331 330 330 330 331 331 331
306 294 291 294 295 298 304 302 307 309 310 316 319 318 321 322 328 328 328 327 328 329 331 333 333 337 338 337 332 330 330 331 331 330 327 326 330 329 328 327 329 331 332 332 331 332 332 331 328
298 291 293 299 300 299 301 301 303 305 308 312 317 318 319 323 324 324 323 323 323 324 326 330 330 334 335 335 333 335 334 334 333 332 331 330 329 329 328 324 324 327 327 328 329 330 330 326 327
295 290 295 298 300 303 302 302 303 304 303 309 313 317 317 319 321 322 322 323 324 325 326 330 331 334 335 333 332 332 333 332 331 331 329 327 326 327 328 328 327 328 319 326 325 325 325 324 325
292 295 295 297 300 302 302 305 301 303 306 309 310 317 317 318 319 321 321 323 324 325 326 327 330 332 333 332 331 330 330 330 329 329 328 327 326 326 326 326 326 326 327 326 326 325 325 325 325
293 295 298 298 298 299 304 302 302 303 307 311 316 314 315 319 320 322 323 324 324 323 326 327 330 330 330 330 330 328 329 329 329 328 328 327 326 325 325 324 325 326 326 325 325 324 325 325 325
295 295 296 297 297 299 300 300 305 305 305 312 318 314 315 318 320 320 320 322 324 325 327 327 329 330 330 329 328 327 329 328 328 327 327 327 326 325 324 324 325 325 325 326 325 325 326 326 325
297 292 294 295 296 296 301 297 298 304 303 310 316 318 315 316 320 320 321 322 324 325 328 329 329 330 329 329 327 328 328 327 327 326 326 325 326 325 326 326 326 326 326 325 325 325 325 325 325
292 292 286 293 295 297 298 286 299 305 298 300 313 316 316 313 315 320 323 323 325 325 325 326 330 330 329 328 327 328 328 327 326 326 327 326 326 326 326 326 326 327 326 326 325 325 325 325 325
289 283 286 288 295 297 296 289 298 303 297 299 306 315 316 316 313 315 323 325 326 327 326 326 329 328 327 327 328 328 327 326 327 326 326 326 326 327 327 327 327 327 326 325 325 325 324 325 325
283 285 286 286 292 295 294 291 298 298 295 295 298 305 315 315 318 316 317 322 326 327 327 327 328 328 327 327 326 326 326 326 326 326 326 326 326 326 326 326 326 326 325 325 324 324 325 325 326
290 288 285 290 293 293 292 293 295 296 294 292 294 296 302 309 312 320 317 318 321 324 326 327 326 326 326 325 324 324 323 325 325 326 326 326 326 326 326 325 324 324 323 323 323 323 322 323 324
289 285 286 290 292 293 293 291 293 294 296 294 293 296 297 303 306 315 320 318 316 317 323 325 326 325 326 327 324 325 325 324 326 328 327 326 325 326 325 325 325 325 324 324 324 323 323 324 326
287 285 284 288 293 294 292 288 293 295 296 297 296 296 298 298 302 306 309 311 314 316 317 321 324 323 325 324 323 323 323 324 323 324 325 326 327 327 326 326 326 327 327 326 325 325 323 323 325
285 292 289 289 290 284 289 281 285 291 292 294 296 295 295 298 299 303 305 307 308 310 314 317 321 321 321 322 323 323 322 320 323 325 326 328 329 328 329 330 329 329 328 327 327 327 325 324 322
288 291 291 290 288 287 285 283 285 289 288 290 294 296 296 298 299 299 302 304 306 309 310 314 315 314 316 322 323 322 321 323 325 325 326 326 324 324 325 326 327 327 328 327 327 326 324 325 323
292 289 289 288 286 279 285 284 283 285 288 289 294 296 296 295 298 300 300 304 303 304 305 307 309 311 312 312 313 315 317 319 321 322 320 320 317 318 318 320 321 322 322 322 322 322 323 323 322
287 283 272 273 277 278 283 282 283 289 292 292 291 294 297 297 296 297 298 298 300 300 302 303 304 304 305 306 307 307 308 311 313 314 315 316 314 314 313 315 314 315 315 316 318 317 316 317 318
284 283 276 269 274 278 282 278 283 291 293 294 295 296 297 298 298 297 297 298 298 298 300 301 301 301 302 304 303 305 305 306 306 307 309 310 311 312 310 311 311 311 311 312 312 311 311 312 312
284 281 284 279 275 275 278 282 288 291 290 290 291 293 293 296 297 298 299 298 297 297 297 299 300 300 301 302 302 302 304 305 305 305 306 306 306 306 306 306 306 307 307 308 308 308 307 308 307
284 286 278 277 267 269 277 277 279 284 285 287 288 289 290 292 292 294 295 296 298 297 297 297 298 298 298 299 300 301 302 302 303 303 302 303 302 303 302 301 302 302 303 304 305 304 303 303 302
282 281 282 281 279 273 272 277 284 285 286 286 287 288 288 288 289 291 292 293 294 296 296 296 296 296 296 297 297 298 299 299 300 300 300 299 299 299 299 299 298 299 299 300 300 299 299 297 296
283 280 281 275 275 276 277 276 287 287 287 287 287 287 287 288 288 289 290 291 292 292 293 294 295 295 296 296 296 296 297 297 298 298 298 299 297 297 297 296 296 296 297 297 297 296 295 294 293
Wind_Speed
8 5 1 3 1 3 3 6 2 3 3 2 3 4 7 4 7 4 2 7 13 18 18 18 21 20 18 18 17 15 14 14 14 13 13 12 12 12 12 11 13 11 11 10 11 10 10 9 9
5 2 3 2 3 2 6 5 8 10 3 1 1 1 3 5 2 5 8 7 17 17 17 17 19 19 19 17 17 16 14 14 13 13 12 12 12 12 12 11 10 11 10 10 10 9 8 8 8
1 3 3 3 4 13 6 7 9 3 6 5 2 2 2 2 0 8 3 14 17 17 16 16 19 19 19 19 17 15 14 13 13 12 12 12 12 12 11 11 9 8 9 8 8 7 7 7 7
3 3 3 3 14 7 10 5 5 4 1 2 1 3 2 1 2 6 13 17 18 17 16 16 19 20 19 19 17 16 14 13 13 12 12 12 12 11 10 8 9 8 7 6 6 6 6 5 6
3 2 3 5 10 9 6 3 5 2 3 4 2 3 3 2 2 10 15 16 17 17 14 16 17 18 19 18 17 16 14 13 12 12 12 11 11 10 10 8 8 7 6 5 5 4 3 4 5
3 2 3 16 19 6 2 2 1 3 3 2 3 3 3 2 5 11 14 16 15 15 13 14 13 14 16 17 17 17 15 13 13 12 11 12 11 10 8 8 7 5 4 3 2 2 2 4 4
5 3 14 8 15 4 3 4 6 12 4 7 3 4 1 4 7 11 13 13 14 12 13 10 12 13 12 14 14 14 16 14 13 11 11 11 13 9 8 7 6 5 2 2 1 2 3 4 5
3 2 5 14 13 8 3 6 4 8 13 2 4 6 5 5 13 12 13 13 13 13 13 10 11 11 12 12 13 12 12 12 11 10 7 6 8 9 9 7 5 3 2 3 3 4 5 5 6
1 3 16 9 2 3 10 2 3 4 3 3 5 2 1 16 16 14 14 13 13 11 14 13 13 12 10 10 9 11 11 11 10 9 8 5 3 6 6 5 4 3 3 4 5 6 6 6 5
3 4 7 4 3 2 5 6 9 2 4 4 3 2 11 17 18 18 18 17 16 15 14 12 12 11 9 8 9 9 8 7 7 7 7 5 5 4 5 4 4 4 4 5 6 7 6 5 3
3 8 11 16 7 4 6 7 5 8 6 7 9 7 14 16 17 15 16 16 15 17 10 13 10 9 9 9 7 4 4 5 5 8 7 6 4 3 3 2 2 2 2 3 3 4 3 4 3
4 3 4 6 7 5 3 7 11 6 14 5 6 7 13 17 19 20 20 19 17 17 14 12 11 8 9 6 7 6 5 5 5 6 7 5 3 4 3 3 3 3 2 4 4 3 4 4 4
6 6 6 8 10 8 6 10 4 14 12 15 5 11 17 16 14 12 14 14 15 18 16 12 9 8 8 8 6 6 6 5 5 5 5 5 5 5 4 4 3 4 3 3 3 3 3 4 4
4 8 12 12 13 9 10 9 4 10 13 14 5 11 13 18 18 12 14 15 17 15 13 13 11 9 8 7 7 6 6 6 5 5 6 7 5 4 4 4 4 4 4 4 4 4 4 4 4
6 12 11 10 10 11 6 13 10 0 12 15 6 6 8 11 12 16 14 14 16 12 13 13 12 10 9 9 8 7 6 6 5 6 7 7 7 7 6 5 5 5 4 5 4 5 4 4 3
5 7 7 0 7 6 9 15 10 9 10 15 9 5 6 9 11 9 12 13 13 12 13 11 10 11 10 9 8 7 7 6 6 6 6 8 8 8 6 5 6 6 4 4 4 4 4 4 4
3 7 8 11 9 5 13 7 6 14 11 9 13 6 1 4 3 3 6 9 11 10 12 13 10 11 9 9 8 8 8 6 6 6 6 8 9 9 7 6 6 5 5 5 4 4 4 4 5
5 6 7 11 4 12 13 1 11 14 13 9 14 12 5 10 1 8 7 7 9 10 12 12 9 9 9 7 4 3 4 5 5 6 6 8 7 8 7 6 7 6 5 5 5 6 4 5 6
13 11 16 7 6 4 8 6 7 16 10 17 17 14 14 11 9 2 7 5 7 9 10 12 12 11 9 4 3 3 5 5 5 6 9 8 8 8 8 7 6 5 6 7 5 3 5 5 4
6 11 10 11 6 8 9 11 13 8 8 16 20 14 17 12 14 12 4 5 5 6 7 9 10 10 8 6 3 3 3 3 4 5 7 9 8 9 8 6 6 6 5 6 6 6 3 3 4
5 7 8 5 9 5 11 4 5 5 9 16 22 14 14 14 15 13 13 10 10 9 3 4 5 5 5 6 3 2 2 1 1 3 4 8 11 9 8 8 7 7 6 6 6 5 6 5 2
6 11 7 9 2 4 5 5 1 4 12 19 16 18 13 18 15 9 13 11 11 9 9 9 7 3 3 5 4 4 3 3 2 3 2 3 5 6 7 8 7 7 4 5 5 4 5 3 3
6 6 3 5 4 3 6 5 4 7 10 12 11 13 7 7 10 14 14 13 10 9 9 5 10 7 8 1 3 3 3 2 2 2 3 1 1 3 4 4 4 3 2 2 2 3 4 3 3
11 3 2 2 3 4 6 1 3 5 5 4 7 14 18 16 8 11 8 10 8 7 6 6 8 7 6 6 6 5 5 5 3 2 3 1 1 2 3 3 3 3 3 3 2 1 1 2 3
8 5 4 6 6 4 10 8 4 9 6 5 7 6 7 11 11 10 10 9 6 8 8 7 7 6 6 5 5 6 6 5 5 4 2 2 2 1 2 3 1 1 3 3 3 4 4 2 3
5 3 3 1 2 2 7 7 6 4 6 3 2 2 4 8 7 6 3 2 10 10 8 6 6 6 6 8 9 5 6 3 2 4 3 2 1 2 1 1 2 3 3 4 4 3 3 4 5
7 5 2 5 2 4 3 1 1 2 3 4 6 6 5 3 3 5 4 6 5 4 7 6 7 8 6 4 3 1 4 7 5 5 2 0 2 2 2 3 4 4 4 4 5 3 4 5 5
3 2 3 4 3 3 2 4 2 4 5 6 9 7 7 7 9 8 8 8 6 5 3 4 2 4 1 3 4 3 4 4 3 3 4 5 3 4 5 4 4 4 5 5 6 5 5 7 5
6 4 4 3 2 3 3 0 2 2 3 6 6 5 5 6 7 8 8 7 7 5 6 5 5 4 5 4 2 3 3 4 4 4 3 5 5 4 5 5 6 5 6 5 6 7 6 7 6
1 1 1 4 3 2 2 3 2 3 5 6 5 4 4 4 5 5 5 6 8 8 9 8 7 6 6 5 4 4 5 4 3 4 4 4 5 5 5 5 5 5 5 5 6 7 6 7 7
Wind_Direction
329 327 75 43 60 59 243 245 281 252 241 220 124 155 202 154 166 210 336 167 144 149 155 156 149 154 150 142 138 135 135 136 135 133 131 131 128 123 121 111 110 103 100 98 97 89 83 76 68
321 1 50 93 132 204 238 207 225 230 211 91 162 173 171 228 156 130 130 182 154 151 154 155 152 154 147 142 143 141 143 142 139 138 134 133 132 128 123 119 115 116 108 105 99 90 79 68 60
309 27 101 165 184 220 229 209 223 220 243 211 240 200 195 234 2 166 187 150 150 153 155 154 151 154 147 146 146 145 145 144 143 140 140 137 138 134 131 129 127 112 110 103 95 88 76 63 51
23 24 48 207 225 246 216 196 199 138 22 208 163 271 303 317 246 176 146 147 150 156 156 156 154 156 154 151 150 149 147 147 143 143 146 142 137 133 132 133 120 117 106 102 96 83 67 52 40
33 66 221 234 241 240 234 188 161 192 183 158 163 278 242 33 42 131 146 148 152 156 157 157 156 159 156 153 151 148 148 148 145 149 149 141 138 143 141 141 127 123 121 118 106 91 64 37 23
76 96 213 239 236 245 356 171 186 228 247 212 172 152 243 123 131 145 149 146 155 153 156 162 155 154 156 157 154 150 148 149 151 150 147 146 146 149 147 141 137 139 138 131 115 87 20 1 353
127 134 233 254 260 285 249 168 202 245 258 245 149 184 261 193 151 146 142 138 145 151 157 159 160 154 149 150 152 151 150 152 155 157 157 168 170 151 148 145 155 150 156 189 216 309 328 330 334
110 143 255 234 250 284 233 192 217 193 243 97 178 203 231 183 146 135 135 138 144 154 168 166 169 161 159 161 148 148 150 153 156 150 138 154 164 164 152 160 177 186 231 240 265 288 300 312 324
318 255 248 251 203 272 284 317 316 324 207 221 209 178 151 137 140 144 145 149 153 167 178 181 180 177 160 156 157 149 153 153 147 146 144 133 134 151 159 162 192 236 261 270 276 284 297 308 310
182 252 271 9 344 355 303 316 305 253 271 242 232 61 131 142 161 161 169 169 171 173 178 186 184 181 158 155 158 161 159 162 158 160 162 166 166 174 182 199 222 248 269 283 291 293 310 304 293
259 246 259 280 285 318 326 316 316 292 263 234 218 177 162 161 171 175 179 178 173 170 177 177 181 169 165 167 166 168 164 162 169 171 168 167 171 187 204 220 232 246 264 263 273 285 286 290 289
300 315 328 320 334 332 287 319 324 267 269 324 296 175 168 178 183 182 182 181 173 173 173 176 181 165 179 169 175 178 171 172 173 178 175 175 182 195 211 230 236 245 248 265 264 273 289 291 291
252 292 298 290 275 260 255 261 231 297 301 306 276 175 181 189 188 187 181 174 172 181 174 170 169 177 184 182 182 181 179 178 180 183 190 187 194 208 208 227 239 249 249 246 257 260 272 282 286
231 274 271 279 285 291 257 248 231 264 331 296 217 210 204 188 186 161 173 174 173 176 170 170 170 174 178 191 180 184 181 182 185 194 202 204 206 213 217 230 235 245 232 244 252 255 262 261 266
281 287 293 247 220 233 234 267 230 295 331 292 266 228 207 201 179 183 174 176 173 170 166 167 173 171 179 188 190 183 186 186 197 206 204 208 211 214 216 226 237 244 241 256 258 261 260 266 263
266 266 283 227 203 244 163 259 217 35 352 296 309 224 200 181 181 180 166 172 170 166 175 180 173 179 183 182 188 189 187 196 208 208 212 215 220 220 224 232 239 241 238 240 243 253 258 256 260
227 272 257 294 198 200 184 249 169 41 359 7 359 336 337 97 153 182 165 165 168 171 187 189 178 174 180 189 189 191 194 202 214 215 215 219 220 220 223 232 246 242 240 236 235 237 228 254 266
280 259 256 252 288 203 200 156 63 32 352 53 33 7 41 45 225 178 185 166 160 166 185 190 184 178 177 190 174 172 193 220 221 225 223 223 226 224 222 233 239 228 231 239 232 242 234 245 251
268 279 268 224 245 248 218 167 62 19 287 41 49 7 21 35 349 159 183 183 166 168 173 186 187 180 172 162 164 181 219 220 219 224 226 223 230 228 222 228 232 217 212 225 207 200 232 247 244
281 281 307 258 208 202 151 131 87 34 332 50 56 23 20 358 10 16 79 158 181 171 176 175 184 171 180 180 169 167 171 207 216 218 220 223 222 226 219 215 223 219 213 220 215 198 204 233 186
315 307 333 299 90 69 120 52 121 192 26 48 51 44 30 4 11 6 30 45 56 53 86 162 153 152 165 156 138 143 143 147 173 227 229 225 225 223 205 215 217 221 211 222 211 201 207 233 207
328 344 342 11 95 69 351 133 248 74 53 36 31 36 22 15 3 17 15 24 43 35 42 53 52 84 151 158 164 179 182 196 211 227 236 245 222 228 220 214 215 221 212 225 219 210 215 193 207
262 333 342 45 49 109 15 89 334 15 33 31 20 57 41 53 10 11 25 343 29 30 28 26 65 23 19 354 193 216 234 230 226 245 270 304 347 2 346 321 263 232 260 267 237 190 185 189 188
284 288 250 5 73 74 341 274 36 30 29 11 42 22 31 20 7 18 5 336 7 37 27 17 60 30 29 11 11 22 354 1 351 310 277 249 143 74 22 4 10 28 73 70 65 121 118 167 152
14 21 349 3 45 19 338 53 31 17 39 28 48 35 25 46 31 38 2 358 4 37 30 4 37 34 32 47 24 13 31 3 0 344 350 330 290 52 22 337 69 75 75 79 89 95 87 75 108
320 42 109 113 44 16 1 26 17 316 328 327 132 91 46 19 43 39 142 340 17 3 23 21 11 58 19 28 25 359 43 11 44 15 346 323 28 313 60 254 73 78 74 80 89 92 86 90 88
318 38 282 112 349 69 7 144 45 235 1 45 58 41 26 29 35 51 17 27 57 18 17 8 5 6 38 79 94 123 33 43 23 10 20 94 72 78 75 61 72 58 64 64 77 79 76 82 84
44 296 14 7 68 68 53 60 72 20 33 45 52 39 25 33 39 31 35 32 28 22 30 45 53 136 111 53 36 34 88 124 148 116 66 67 54 51 72 70 69 61 57 63 71 71 61 74 64
346 8 33 112 66 135 117 324 218 147 114 97 69 61 42 41 34 27 28 21 21 18 14 25 24 25 35 42 75 79 61 50 70 81 87 95 86 55 58 55 56 53 59 62 86 85 84 90 88
241 354 36 105 280 44 89 226 127 164 127 114 97 91 73 56 52 53 35 29 30 17 19 27 26 27 19 17 15 17 39 62 73 71 81 78 75 73 88 82 78 68 66 70 86 92 93 98 95